Regional Weather Roundup
Issued by NWS Bismarck, ND

Home | Current Version | Previous Version | Text Only | Print | Product List | Glossary On
Versions: 1 2 3 4 5 6 7 8 9 10 11 12 13 14 15 16 17 18 19 20 21 22 23 24 25 26 27 28 29 30 31 32 33 34 35 36 37 38 39 40 41 42 43 44 45 46 47 48 49 50
000
ASUS43 KBIS 300110
RWRBIS

NWR BROADCAST TEXT
NATIONAL WEATHER SERVICE BISMARCK ND
800 PM CDT SAT AUG 29 2015

NOTE: "FAIR" INDICATES FEW OR NO CLOUDS BELOW 12,000 FEET WITH NO
SIGNIFICANT WEATHER AND/OR OBSTRUCTIONS TO VISIBILITY.


CITY           SKY/WX    TMP DP  RH WIND       PRES   REMARKS
WILLISTON      MOCLDY    81  59  47 N5        29.77F HAZE
MINOT          PTCLDY    82  56  40 SE7       29.77F HAZE
MINOT AFB      PTCLDY    82  58  44 SE1       29.76S
BISMARCK       PTCLDY    80  62  54 S9        29.82F HAZE
DICKINSON      PTCLDY    83  47  28 S7        29.82S
GARRISON         N/A     80  60  50 SE7       29.79F
HETTINGER ARPT CLEAR     84  47  27 SE6       29.88S
JAMESTOWN      PTCLDY    77  71  82 S6        29.85S
CROSBY         FAIR      77  57  50 E7        29.79S HAZE
HARVEY         FAIR      77  59  53 S8        29.82S HAZE
HAZEN          FAIR      82  54  36 S12       29.80S
LINTON         FAIR      79  68  69 SE7       29.86S
OAKES            N/A     73  73 100 SE6       29.89R
RUGBY          FAIR      79  63  57 S9        29.79S HAZE
STANLEY        FAIR      81  63  54 CALM      29.81S
$$

CITY           SKY/WX    TMP DP  RH WIND       PRES   REMARKS
GRAND FORKS    MOCLDY    73  68  84 S6        29.82S
GRAND FORKS AF MOCLDY    73  68  85 S7        29.83S
DEVILS LAKE    PTCLDY    77  64  65 S9        29.80F
FARGO          PTCLDY    78  68  71 S15       29.86S
CAVALIER       FAIR      75  70  83 S7        29.78S
GRAFTON        FAIR      73  72  94 S10       29.80F
GWINNER          N/A     75  72  88 S6        29.89S
LANGDON        FAIR      77  66  69 S10       29.81S
ROLLA            N/A     73  61  64 SW9       29.81F
WALHALLA       FAIR      75  75 100 MISG      29.77S
$$

CITY           SKY/WX    TMP DP  RH WIND       PRES   REMARKS
ABERDEEN       CLEAR     77  71  82 SE9       29.89S
MOBRIDGE       CLEAR     80  70  71 SE7       29.84F
BUFFALO          N/A     83  54  36 SE13      29.82F
RAPID CITY     PTCLDY    81  57  43 SE7       29.92F
GLASGOW        HAZE      85  43  22 E10       29.71F VSB 3/4
SIDNEY         CLOUDY    84  61  45 CALM      29.75F
WOLF POINT     HAZE      86  50  28 E7        29.73F VSB 1
GLENDIVE       CLOUDY    91  50  24 SE3       29.79S
MILES CITY     PTCLDY    94  44  17 SE8       29.76F HX  90
BAKER          CLOUDY    90  48  23 S10       29.84F
$$

CITY           SKY/WX    TMP DP  RH WIND       PRES   REMARKS
BILLINGS       CLOUDY    87  42  20 S5        29.83F
GREAT FALLS    CLOUDY    73  57  57 S10       29.74S
REGINA         CLOUDY    79  54  41 E5        29.75F SMOKE
ESTEVAN        SMOKE     75  57  53 E5        29.78F VSB 1
$$




USA.gov is the U.S. government's official web portal to all federal, state and local government web resources and services.